Regional Weather Roundup
Issued by NWS

Home | Current Version | Previous Version | Graphics & Text | Print | Product List | Glossary On
Versions: 1 2 3 4 5 6 7 8 9 10 11 12 13 14 15 16 17 18 19 20 21 22 23 24 25 26 27 28 29 30 31 32 33 34 35 36 37 38 39 40 41 42 43 44 45 46 47 48 49 50
913
ASUS44 KLIX 301105
RWRLA
LOUISIANA WEATHER ROUNDUP
NATIONAL WEATHER SERVICE NEW ORLEANS LA
500 AM CST FRI JAN 30 2015

NOTE: "FAIR" INDICATES FEW OR NO CLOUDS BELOW 12,000 FEET WITH NO
      SIGNIFICANT WEATHER AND/OR OBSTRUCTIONS TO VISIBILITY.
      SKY/WX - SKY CONDITION AND SIGNIFICANT WEATHER.
      TMP - AIR TEMPERATURE.    DP   - DEWPOINT TEMPERATURE.
      RH  - RELATIVE HUMIDITY.  PRES - PRESSURE.
      HX  - HEAT INDEX.         WCI  - WIND CHILL INDEX.

*  THESE STATIONS ARE NOT NWS OR FAA STATIONS AND ARE NOT UNDER
   NWS QUALITY CONTROL.

LAZ040-048-061>063-065-066-069-301200-
SOUTHEAST LOUISIANA

CITY           SKY/WX    TMP DP  RH WIND       PRES   REMARKS
N.O. AUDUBON     N/A     53  44  70 MISG        N/A
N.O. INTL ARPT MOCLDY    52  41  66 N14       30.30R
N.O. LAKEFRONT CLEAR     54  43  66 N20       30.30R
N.O. DOWNTOWN* NOT AVBL
SLIDELL        CLEAR     50  39  66 N10       30.29R
BATON ROUGE    CLEAR     46  37  71 VRB3      30.34R
BOOTHVILLE     PTCLDY    56  51  84 N9        30.26R
BELLE CHASSE   CLEAR     54  39  57 N12G22    30.28R
BOGALUSA*        N/A     47  38  69 N10       30.34R
GALLIANO*      SUNNY     56  49  78 MISG      30.28R
NEW ROADS*     FAIR      44  35  72 N12       30.37R
GONZALES*      FAIR      50  41  72 N8        30.32R
HAMMOND*       CLEAR     48  37  66 N13G18    30.34R
HOUMA*         CLEAR     52  47  83 N12       30.29R
PORT FOURCHON* SUNNY     59  52  77 N13G21    30.30R

$$

LAZ041-044-053-054-301200-
SOUTHWEST LOUISIANA

CITY           SKY/WX    TMP DP  RH WIND       PRES   REMARKS
LAKE CHARLES   CLEAR     50  43  77 NE10      30.33R
LAFAYETTE      CLEAR     47  38  71 N16       30.34R
PATTERSON      CLEAR     54  43  66 N12       30.31R
SALT POINT       N/A     54  46  74 N6        30.28R
NEW IBERIA     CLEAR     49  40  71 N14       30.33R
CHENAULT AIRPK NOT AVBL

$$

LAZ027-028-301200-
CENTRAL LOUISIANA

CITY           SKY/WX    TMP DP  RH WIND       PRES   REMARKS
FORT POLK      PTCLDY    45  35  70 NE14G20   30.37R
ALEXANDRIA INT PTCLDY    43  33  68 N8        30.39R
ALEXANDRIA     PTCLDY    43  33  68 NE7       30.40S

$$

LAZ001-002-301200-
NORTHWEST LOUISIANA

CITY           SKY/WX    TMP DP  RH WIND       PRES   REMARKS
SHREVEPORT     CLOUDY    43  31  62 NE10      30.44S
BARKSDALE AFB  MOCLDY    40  30  66 NE5       30.45R
DTN SHREVEPORT PTCLDY    41  30  65 NE5       30.45S

$$

LAZ014-016-301200-
NORTHEAST LOUISIANA

CITY           SKY/WX    TMP DP  RH WIND       PRES   REMARKS
MONROE         PTCLDY    40  32  73 N8        30.45R WCI  34
TALLULAH       MOCLDY    41  32  70 N14       30.42R

$$




USA.gov is the U.S. government's official web portal to all federal, state and local government web resources and services.